When you browse on this site, cookies collect data to enhance your experience and personalize the content and advertising you see.
Visit our Privacy Policy to learn more. By continuing to use the site, you agree to this use of cookies and data.
  • In Czech Republic
  • List of Countries
  • For 7 days
  • Water Temperature
  • Weather Map
  • Weather Widgets
  • user-avatar
    Login

    Hourly Weather Gold Coast

    Today, 5 April, Sunday

    Time Temperature Precipitation Wind Pressure Humidity
    00:00 +21°C° 0.1 mm 2 mps 754 mmHg 94%
    01:00 +20°C° 0.1 mm 2 mps 754 mmHg 95%
    02:00 +19°C° 0 mm 2 mps 754 mmHg 93%
    03:00 +19°C° 0 mm 2 mps 754 mmHg 91%
    04:00 +18°C° 0 mm 2 mps 754 mmHg 89%
    05:00 +18°C° 0 mm 2 mps 755 mmHg 87%
    06:00 +19°C° 0 mm 2 mps 755 mmHg 84%
    07:00 +19°C° 0 mm 2 mps 756 mmHg 82%
    08:00 +21°C° 0 mm 3 mps 756 mmHg 71%
    09:00 +25°C° 0 mm 3 mps 757 mmHg 60%
    10:00 +28°C° 0 mm 3 mps 757 mmHg 44%
    11:00 +29°C° 0 mm 4 mps 757 mmHg 42%
    12:00 +29°C° 0 mm 4 mps 756 mmHg 40%
    13:00 +29°C° 0 mm 5 mps 756 mmHg 38%
    14:00 +28°C° 0 mm 5 mps 756 mmHg 45%
    15:00 +27°C° 0 mm 5 mps 755 mmHg 51%
    16:00 +26°C° 0 mm 4 mps 756 mmHg 58%
    17:00 +23°C° 0 mm 4 mps 756 mmHg 67%
    18:00 +21°C° 0 mm 4 mps 756 mmHg 77%
    19:00 +19°C° 0 mm 3 mps 757 mmHg 87%
    20:00 +19°C° 0 mm 3 mps 757 mmHg 88%
    21:00 +18°C° 0 mm 2 mps 758 mmHg 90%
    22:00 +18°C° 0 mm 2 mps 758 mmHg 92%
    23:00 +18°C° 0 mm 2 mps 758 mmHg 92%

    Tomorrow, 6 April, Monday

    Time Temperature Precipitation Wind Pressure Humidity
    00:00 +17°C° 0 mm 2 mps 758 mmHg 92%
    01:00 +17°C° 0 mm 2 mps 758 mmHg 92%
    02:00 +17°C° 0 mm 2 mps 758 mmHg 93%
    03:00 +17°C° 0 mm 2 mps 758 mmHg 93%
    04:00 +17°C° 0 mm 2 mps 758 mmHg 93%
    05:00 +17°C° 0 mm 2 mps 758 mmHg 90%
    06:00 +18°C° 0 mm 2 mps 758 mmHg 88%
    07:00 +18°C° 0 mm 2 mps 759 mmHg 85%
    08:00 +21°C° 0 mm 2 mps 759 mmHg 74%
    09:00 +24°C° 0 mm 2 mps 759 mmHg 63%
    10:00 +27°C° 0 mm 2 mps 759 mmHg 51%
    11:00 +27°C° 0 mm 3 mps 758 mmHg 51%
    12:00 +28°C° 0 mm 4 mps 758 mmHg 50%
    13:00 +28°C° 0 mm 4 mps 757 mmHg 49%
    14:00 +27°C° 0 mm 5 mps 757 mmHg 54%
    15:00 +26°C° 0 mm 5 mps 757 mmHg 58%
    16:00 +25°C° 0 mm 5 mps 756 mmHg 63%
    17:00 +23°C° 0 mm 5 mps 757 mmHg 66%
    18:00 +22°C° 0 mm 4 mps 758 mmHg 70%
    19:00 +21°C° 0 mm 4 mps 758 mmHg 73%
    20:00 +20°C° 0 mm 4 mps 758 mmHg 75%
    21:00 +20°C° 0 mm 4 mps 759 mmHg 77%
    22:00 +19°C° 0 mm 4 mps 759 mmHg 79%
    23:00 +19°C° 0.1 mm 4 mps 759 mmHg 80%

    Day after tomorrow, 7 April, Tuesday

    Time Temperature Precipitation Wind Pressure Humidity
    00:00 +19°C° 0.1 mm 4 mps 759 mmHg 81%
    01:00 +19°C° 0.1 mm 4 mps 759 mmHg 82%
    02:00 +18°C° 0.1 mm 4 mps 758 mmHg 85%
    03:00 +18°C° 0.1 mm 4 mps 758 mmHg 88%
    04:00 +16°C° 0.1 mm 5 mps 758 mmHg 91%
    05:00 +17°C° 0 mm 4 mps 758 mmHg 89%
    06:00 +18°C° 0 mm 4 mps 759 mmHg 87%
    07:00 +18°C° 0 mm 4 mps 759 mmHg 85%
    08:00 +20°C° 0 mm 5 mps 759 mmHg 75%
    09:00 +22°C° 0 mm 5 mps 759 mmHg 65%
    10:00 +26°C° 0 mm 5 mps 759 mmHg 55%
    11:00 +26°C° 0 mm 5 mps 759 mmHg 55%
    12:00 +26°C° 0 mm 6 mps 758 mmHg 56%
    13:00 +27°C° 0 mm 6 mps 758 mmHg 56%
    14:00 +26°C° 0 mm 6 mps 758 mmHg 57%
    15:00 +26°C° 0 mm 5 mps 757 mmHg 58%
    16:00 +26°C° 0 mm 5 mps 757 mmHg 60%
    17:00 +23°C° 0 mm 5 mps 758 mmHg 68%
    18:00 +21°C° 0 mm 4 mps 758 mmHg 77%
    19:00 +19°C° 0 mm 4 mps 758 mmHg 86%
    20:00 +19°C° 0.1 mm 4 mps 759 mmHg 89%
    21:00 +18°C° 0.1 mm 4 mps 759 mmHg 92%
    22:00 +18°C° 0.1 mm 3 mps 759 mmHg 95%
    23:00 +18°C° 0.2 mm 4 mps 759 mmHg 95%

    8 April, Wednesday

    Time Temperature Precipitation Wind Pressure Humidity
    00:00 +18°C° 0.2 mm 4 mps 759 mmHg 95%
    01:00 +18°C° 0.2 mm 4 mps 759 mmHg 96%
    02:00 +18°C° 0.6 mm 4 mps 759 mmHg 96%
    03:00 +17°C° 0.6 mm 5 mps 759 mmHg 96%
    04:00 +17°C° 0.6 mm 5 mps 759 mmHg 96%
    05:00 +17°C° 0.7 mm 5 mps 759 mmHg 96%
    06:00 +17°C° 0.7 mm 5 mps 759 mmHg 95%
    07:00 +17°C° 0.7 mm 6 mps 760 mmHg 95%
    08:00 +19°C° 0.2 mm 6 mps 760 mmHg 89%
    09:00 +20°C° 0.2 mm 6 mps 760 mmHg 83%
    10:00 +21°C° 0.2 mm 6 mps 760 mmHg 78%
    11:00 +22°C° 0.1 mm 6 mps 760 mmHg 74%
    12:00 +23°C° 0.1 mm 6 mps 760 mmHg 71%
    13:00 +23°C° 0.1 mm 6 mps 760 mmHg 67%
    14:00 +23°C° 0.1 mm 6 mps 760 mmHg 70%
    15:00 +22°C° 0.1 mm 6 mps 760 mmHg 73%
    16:00 +21°C° 0.1 mm 6 mps 760 mmHg 76%
    17:00 +21°C° 0 mm 5 mps 760 mmHg 78%
    18:00 +20°C° 0 mm 5 mps 761 mmHg 80%
    19:00 +20°C° 0 mm 5 mps 761 mmHg 82%
    20:00 +20°C° 0 mm 5 mps 761 mmHg 82%
    21:00 +20°C° 0 mm 5 mps 762 mmHg 82%
    22:00 +19°C° 0 mm 5 mps 762 mmHg 83%
    23:00 +19°C° 0 mm 5 mps 762 mmHg 83%

    9 April, Thursday

    Time Temperature Precipitation Wind Pressure Humidity
    00:00 +19°C° 0 mm 5 mps 762 mmHg 83%
    01:00 +19°C° 0 mm 5 mps 762 mmHg 83%
    02:00 +17°C° 0 mm 5 mps 762 mmHg 84%
    03:00 +17°C° 0 mm 5 mps 762 mmHg 85%
    04:00 +16°C° 0 mm 5 mps 762 mmHg 86%
    05:00 +16°C° 0.1 mm 5 mps 762 mmHg 85%
    06:00 +17°C° 0.1 mm 5 mps 763 mmHg 84%
    07:00 +17°C° 0.1 mm 5 mps 763 mmHg 83%
    08:00 +20°C° 0.3 mm 6 mps 763 mmHg 78%
    09:00 +22°C° 0.3 mm 6 mps 764 mmHg 72%
    10:00 +24°C° 0.3 mm 6 mps 764 mmHg 67%
    11:00 +24°C° 0.4 mm 6 mps 764 mmHg 68%
    12:00 +24°C° 0.4 mm 6 mps 763 mmHg 68%
    13:00 +25°C° 0.4 mm 5 mps 763 mmHg 69%
    14:00 +23°C° 0.2 mm 5 mps 763 mmHg 69%
    15:00 +23°C° 0.2 mm 5 mps 763 mmHg 69%
    16:00 +23°C° 0.2 mm 5 mps 763 mmHg 69%
    17:00 +22°C° 0.2 mm 5 mps 764 mmHg 77%
    18:00 +20°C° 0.2 mm 5 mps 764 mmHg 84%
    19:00 +19°C° 0.2 mm 5 mps 765 mmHg 91%
    20:00 +19°C° 0.1 mm 5 mps 765 mmHg 91%
    21:00 +19°C° 0.1 mm 4 mps 765 mmHg 91%
    22:00 +19°C° 0.1 mm 4 mps 765 mmHg 91%
    23:00 +18°C° 0.3 mm 4 mps 765 mmHg 92%

    10 April, Friday

    Time Temperature Precipitation Wind Pressure Humidity
    00:00 +18°C° 0.3 mm 4 mps 765 mmHg 93%
    01:00 +18°C° 0.3 mm 4 mps 765 mmHg 93%
    02:00 +18°C° 0.2 mm 4 mps 765 mmHg 93%
    03:00 +18°C° 0.2 mm 4 mps 764 mmHg 93%
    04:00 +18°C° 0.2 mm 4 mps 764 mmHg 93%
    05:00 +18°C° 0.2 mm 4 mps 765 mmHg 93%
    06:00 +19°C° 0.2 mm 4 mps 765 mmHg 92%
    07:00 +19°C° 0.2 mm 5 mps 765 mmHg 92%
    08:00 +21°C° 0.1 mm 5 mps 766 mmHg 82%
    09:00 +23°C° 0.1 mm 5 mps 766 mmHg 72%
    10:00 +25°C° 0.1 mm 5 mps 766 mmHg 62%
    11:00 +26°C° 0 mm 5 mps 765 mmHg 59%
    12:00 +27°C° 0 mm 5 mps 765 mmHg 55%
    13:00 +27°C° 0 mm 5 mps 764 mmHg 52%
    14:00 +27°C° 0 mm 5 mps 763 mmHg 54%
    15:00 +26°C° 0 mm 5 mps 763 mmHg 56%
    16:00 +25°C° 0 mm 5 mps 763 mmHg 59%
    17:00 +23°C° 0 mm 4 mps 763 mmHg 66%
    18:00 +21°C° 0 mm 3 mps 763 mmHg 73%
    19:00 +19°C° 0 mm 3 mps 763 mmHg 80%
    20:00 +18°C° 0 mm 2 mps 763 mmHg 81%
    21:00 +18°C° 0 mm 2 mps 763 mmHg 82%
    22:00 +18°C° 0 mm 2 mps 763 mmHg 83%
    23:00 +17°C° 0 mm 2 mps 763 mmHg 83%
    Show more